Simultaneous Nadir Overpasses (SNOs) Predictions

Prediction of SNOs between GOES-17 and AQUA Satellite Orbit:

Table of predicted SNOs for the next 14.0 days since TLE Epoch: 9/13/2019
Index Date Time (GOES-17) GOES-17 Lat,Lon AQUA Lat,Lon Distance(km) Time Diff (sec)
1 09/15/2019 10:42:42 -0.02,-137.16 -0.00,-137.15 2.20 80
2 09/17/2019 10:30:32 -0.02,-137.14 -0.66,-134.20 333.93 80
3 09/17/2019 22:51:56 0.02,-137.12 -0.44,-139.40 258.16 80
4 09/19/2019 22:42:26 0.02,-137.09 0.15,-136.44 74.03 80
5 09/21/2019 22:30:15 0.02,-137.05 0.75,-133.48 405.36 80
6 09/22/2019 10:51:30 -0.02,-137.04 0.30,-138.65 181.51 80
7 09/24/2019 10:36:39 -0.02,-136.99 -0.31,-135.69 148.60 80
8 09/24/2019 22:58:04 0.02,-136.97 -0.79,-140.88 444.34 80
9 09/26/2019 10:24:29 -0.02,-136.93 -0.91,-132.73 478.09 80
10 09/26/2019 22:45:53 0.02,-136.91 -0.18,-137.93 114.90 80




NCC Satellite Simultaneous Nadir Overpasses (SNOs) Prediction Service
